カタログに戻る

COSMOS 839 DEB

運用中LEO
NORAD 20014·DEBRIS·🇷🇺 Russia

打ち上げ Jul 8, 1976 から Plesetsk Cosmodrome

Loading…

次のパス (今後24時間)

TLE

最新Source: Space-Track

元期: Sep 14, 2026, 22:51 UTC

1 20014U 76067BT  26257.95237065  .00000324  00000-0  12031-2 0  9990
2 20014  65.9000  83.7312 0649268  59.1178  86.2745 12.47642451618293

AllMySatでCOSMOS 839 DEBをリアルタイム追跡

Download on the App Store